Weather History for KPKD - October, 2013

Change the Weather History Date:

Sunday, October 6, 2013

  Actual Average Record
Temperature  
Mean Temperature 50 °F -  
Max Temperature 59 °F 59 °F 85 °F (1993)
Min Temperature 42 °F 35 °F 15 °F (1976)
Degree Days  
Heating Degree Days 15    
Moisture  
Dew Point 43 °F    
Average Humidity 87    
Maximum Humidity 100    
Minimum Humidity 49    
Precipitation  
Precipitation 0.02 in - - ()
Sea Level Pressure  
Sea Level Pressure 29.81 in    
Wind  
Wind Speed 9 mph (NNW)    
Max Wind Speed 17 mph    
Max Gust Speed 26 mph    
Visibility 9 miles    
Events Rain    
Averages and records for this station are not official NWS values.
T = Trace of Precipitation, MM = Missing Value Source: NWS Daily Summary

Daily Weather History Graph

Daily Weather History Graph

Search for Another Location

Airport or City:

Trip Planner

Search our weather history database for the weather conditions in past years. The results will help you decide how hot, cold, wet, or windy it might be!

Date:

Astronomy

Oct. 06, 2013 Rise Set
Actual Time 7:26 AM CDT 6:49 PM CDT
Civil Twilight 6:55 AM CDT 7:19 PM CDT
Nautical Twilight 6:20 AM CDT 7:55 PM CDT
Astronomical Twilight 5:45 AM CDT 8:30 PM CDT
Moon 9:20 AM CDT (10/6) 7:39 PM CDT (10/6)
Length of Visible Light 12h 24m
Length of Day
11h 23m
Waxing Crescent, 3% of the Moon is Illuminated
Oct 6
Waxing Crescent
Oct 11
First Quarter
Oct 18
Full
Oct 26
Last Quarter
Nov 3
New

Hourly Weather History & Observations

Time (CDT) Temp. Windchill Dew Point Humidity Pressure Visibility Wind Dir Wind Speed Gust Speed Precip Events Conditions
12:02 AM 46.4 °F 42.9 °F 44.6 °F 93% 29.77 in 10.0 mi NE 6.9 mph - N/A   Overcast
12:41 AM 46.4 °F 43.5 °F 44.6 °F 93% 29.78 in 10.0 mi Variable 5.8 mph - N/A   Overcast
12:53 AM 46.0 °F 43.1 °F 45.0 °F 96% 29.81 in 10.0 mi NE 5.8 mph - N/A   Overcast
1:53 AM 45.0 °F 40.6 °F 45.0 °F 100% 29.80 in 3.0 mi North 8.1 mph - N/A   Overcast
2:41 AM 44.6 °F 39.2 °F 44.6 °F 100% 29.78 in 2.5 mi NNW 10.4 mph - N/A   Overcast
2:53 AM 45.0 °F 38.9 °F 44.1 °F 97% 29.81 in 2.0 mi North 12.7 mph - 0.00 in Rain Light Rain
3:14 AM 44.6 °F 38.8 °F 44.6 °F 100% 29.77 in 3.0 mi North 11.5 mph - 0.00 in Rain Light Rain
3:34 AM 44.6 °F 40.2 °F 44.6 °F 100% 29.76 in 10.0 mi North 8.1 mph - 0.00 in   Overcast
3:53 AM 45.0 °F 41.8 °F 44.1 °F 97% 29.78 in 10.0 mi NNE 5.8 mph - 0.00 in   Overcast
4:04 AM 44.6 °F 40.2 °F 44.6 °F 100% 29.77 in 10.0 mi North 8.1 mph - N/A   Overcast
4:16 AM 44.6 °F 40.2 °F 44.6 °F 100% 29.77 in 10.0 mi NNW 8.1 mph - N/A   Overcast
4:53 AM 45.0 °F 40.1 °F 44.1 °F 97% 29.78 in 10.0 mi North 9.2 mph - 0.00 in   Overcast
5:53 AM 45.0 °F 38.5 °F 44.1 °F 97% 29.80 in 4.0 mi North 13.8 mph - N/A   Overcast
6:53 AM 45.0 °F 38.5 °F 44.1 °F 97% 29.80 in 10.0 mi North 13.8 mph - 0.00 in   Overcast
7:53 AM 45.0 °F 38.5 °F 43.0 °F 93% 29.81 in 10.0 mi North 13.8 mph 20.7 mph N/A   Overcast
8:53 AM 44.1 °F 37.7 °F 43.0 °F 96% 29.81 in 6.0 mi North 12.7 mph - 0.01 in Rain Light Rain
9:53 AM 44.1 °F 36.5 °F 42.1 °F 93% 29.82 in 10.0 mi North 17.3 mph 26.5 mph 0.01 in   Overcast
10:53 AM 45.0 °F 38.2 °F 42.1 °F 90% 29.83 in 10.0 mi North 15.0 mph - N/A   Overcast
11:53 AM 45.0 °F 38.2 °F 43.0 °F 93% 29.85 in 10.0 mi North 15.0 mph - N/A   Overcast
12:53 PM 46.9 °F - 44.1 °F 90% 29.84 in 10.0 mi North 13.8 mph - N/A   Overcast
1:32 PM 48.2 °F - 44.6 °F 87% 29.82 in 10.0 mi North 15.0 mph - N/A   Overcast
1:53 PM 48.9 °F - 44.1 °F 83% 29.84 in 10.0 mi North 11.5 mph 23.0 mph N/A   Overcast
2:29 PM 50.0 °F - 42.8 °F 76% 29.81 in 10.0 mi North 12.7 mph 19.6 mph N/A   Scattered Clouds
2:53 PM 52.0 °F - 42.1 °F 69% 29.83 in 10.0 mi NNW 10.4 mph - N/A   Partly Cloudy
3:53 PM 57.0 °F - 39.9 °F 53% 29.82 in 10.0 mi NNW 13.8 mph - N/A   Clear
4:53 PM 57.9 °F - 39.0 °F 49% 29.82 in 10.0 mi NW 11.5 mph - N/A   Clear
5:53 PM 57.0 °F - 37.9 °F 49% 29.84 in 10.0 mi NNW 11.5 mph - N/A   Clear
6:53 PM 48.0 °F - 39.9 °F 74% 29.85 in 10.0 mi WNW 6.9 mph - N/A   Clear
7:53 PM 46.0 °F 42.5 °F 39.9 °F 79% 29.86 in 10.0 mi WNW 6.9 mph - N/A   Clear
8:53 PM 48.0 °F - 41.0 °F 77% 29.86 in 10.0 mi WNW 8.1 mph - N/A   Overcast
9:53 PM 46.0 °F 43.1 °F 41.0 °F 83% 29.85 in 10.0 mi West 5.8 mph - N/A   Mostly Cloudy
10:53 PM 43.0 °F - 39.0 °F 86% 29.85 in 10.0 mi Calm Calm - N/A   Clear
11:53 PM 42.1 °F 40.2 °F 39.0 °F 89% 29.85 in 10.0 mi WNW 3.5 mph - N/A   Mostly Cloudy